[[{"header":{"parameterUnit":"m.s-1","parameterCategory":1,"la1":30.2991,"la2":30.254,"lo1":-89.0895,"lo2":-89.0444,"dy":0.0017,"dx":0.0017,"nx":28,"ny":28,"refTime":"2023-11-09T09:00:00:Z","depth":0,"parameterNumber":2,"parameterNumberName":"U-component_of_WINDS"},"data":[0,0,0,0,0,0,0,0,0,0,0,0,0,0,0,0,0,0,0,0,0,0,0,0,0,0,0,0,0,0,0,0,0,0,0,0,0,0,0,0,0,0,0,0,0,0,0,0,0,0,0,0,0,0,0,0,0,0,-2.6234,-2.6235,0,-2.6306,-2.6306,-2.6307,-2.6326,-2.6326,-2.6325,-2.6325,-2.6396,-2.6399,-2.6401,0,0,0,0,0,0,0,0,0,0,0,0,0,-2.6114,-2.6116,-2.6234,-2.6235,-2.6236,-2.6305,-2.6306,-2.6307,-2.6326,-2.6326,-2.6325,-2.6325,-2.6396,-2.6398,-2.6401,0,0,0,0,0,0,0,0,0,0,0,0,0,-2.6174,-2.6117,-2.6234,-2.6254,-2.6256,-2.6305,-2.6306,-2.6308,-2.6326,-2.6326,-2.6325,-2.6325,-2.6395,-2.6398,-2.6401,-2.6435,0,0,-2.6412,-2.6413,0,0,0,0,0,0,0,0,-2.617,-2.6178,-2.625,-2.6253,-2.6255,-2.6306,-2.629,-2.635,-2.6327,-2.63,-2.6325,-2.6324,-2.6367,-2.6372,-2.6387,-2.6438,-2.6441,-2.6412,-2.6414,-2.6416,-2.6417,0,0,0,0,0,0,0,-2.6166,-2.6175,-2.6262,-2.6251,-2.6254,-2.6259,-2.6267,-2.6302,-2.6336,-2.6302,-2.6304,-2.6312,-2.6368,-2.6384,-2.6389,-2.6443,-2.6412,-2.6415,-2.6417,-2.6419,-2.6526,-2.6527,0,0,0,0,0,0,-2.6159,-2.6172,-2.626,-2.6264,-2.6211,-2.6262,-2.627,-2.6291,-2.6336,-2.6342,-2.6312,-2.6313,-2.6378,-2.6385,-2.6392,-2.6434,-2.6416,-2.6419,-2.6421,-2.6525,-2.6526,-2.6527,0,0,0,0,0,0,-2.6156,-2.6167,-2.6257,-2.6219,-2.623,-2.6264,-2.6287,-2.6292,-2.6308,-2.6343,-2.6349,-2.6322,-2.6378,-2.6387,-2.6425,-2.6437,-2.642,-2.6424,-2.6525,-2.6526,-2.6527,-2.652,0,0,0,0,0,0,-2.6153,-2.6165,-2.6178,-2.6219,-2.6232,-2.6289,-2.6288,-2.6294,-2.6314,-2.6315,-2.6354,-2.636,-2.6378,-2.6419,-2.6428,-2.6441,-2.6426,-2.6524,-2.6525,-2.6527,-2.6519,-2.652,-2.6522,0,0,0,0,0,-2.6148,-2.6173,-2.6179,-2.619,-2.625,-2.629,-2.6297,-2.6318,-2.6315,-2.6328,-2.6352,-2.6359,-2.6435,-2.6423,-2.6433,-2.6448,-2.6523,-2.6525,-2.6526,-2.6518,-2.652,-2.6522,0,0,0,0,0,0,-2.6132,-2.6178,-2.6186,-2.6224,-2.6253,-2.6293,-2.631,-2.632,-2.6349,-2.6349,-2.6373,-2.6382,-2.6418,-2.6437,-2.6423,-2.6483,-2.6479,-2.6483,-2.6469,-2.6471,-2.6473,-2.6467,-2.6429,0,0,0,0,0,-2.6133,-2.6162,-2.6201,-2.6231,-2.6246,-2.6275,-2.6294,-2.6308,-2.6338,-2.635,-2.6376,-2.6405,-2.6435,-2.6455,-2.6485,-2.6522,-2.6531,-2.6538,-2.6539,-2.654,-2.6543,-2.6565,-2.6568,-2.6533,-2.6533,-2.6533,0,0,-2.6135,-2.6164,-2.6181,-2.6229,-2.6253,-2.6282,-2.6285,-2.6316,-2.6338,-2.6354,-2.6392,-2.6412,-2.6446,-2.6484,-2.6502,-2.6501,-2.6555,-2.6542,-2.6543,-2.6545,-2.6567,-2.657,-2.6573,-2.6535,-2.6534,-2.6534,0,0,-2.6154,-2.6179,-2.6207,-2.6232,-2.6268,-2.6288,-2.6295,-2.6334,-2.6348,-2.6387,-2.64,-2.6427,-2.6479,-2.6503,-2.6521,-2.6552,-2.656,-2.6561,-2.6568,-2.6589,-2.6592,-2.6594,-2.6605,-2.6608,-2.6564,-2.6564,-2.6564,0,-2.6152,-2.6197,-2.622,-2.6251,-2.6272,-2.629,-2.6318,-2.6341,-2.6385,-2.6399,-2.6397,-2.6464,-2.6488,-2.6532,-2.654,-2.6555,-2.6563,-2.6556,-2.659,-2.6592,-2.6595,-2.6605,-2.6609,-2.6564,-2.6564,-2.6564,-2.6564,0,-2.6192,-2.6223,-2.6242,-2.6285,-2.6308,-2.6337,-2.6366,-2.6386,-2.6399,-2.6419,-2.6459,-2.6489,-2.6526,-2.6538,-2.655,-2.6584,-2.6582,-2.6585,-2.6581,-2.6598,-2.6608,-2.6612,-2.6564,-2.6564,-2.6564,-2.6564,0,0,-2.62,-2.6258,-2.6264,-2.6285,-2.6327,-2.6352,-2.6383,-2.6419,-2.6437,-2.6467,-2.6493,-2.6538,-2.6542,-2.6563,-2.6579,-2.6597,-2.662,-2.6598,-2.6599,-2.66,-2.6659,-2.6656,-2.666,-2.6626,-2.6627,-2.6628,-2.6656,0,-2.6224,-2.6279,-2.6303,-2.6347,-2.6377,-2.6395,-2.6422,-2.6451,-2.6472,-2.65,-2.6522,-2.6554,-2.6556,-2.6569,-2.6589,-2.6613,-2.6632,-2.6611,-2.665,-2.6651,-2.664,-2.6666,-2.6662,-2.6688,-2.6661,-2.6661,-2.6662,0,-2.6258,-2.629,-2.6338,-2.6378,-2.6391,-2.6415,-2.6451,-2.6478,-2.6512,-2.6525,-2.6551,-2.6566,-2.6599,-2.6594,-2.664,-2.6626,-2.6644,-2.6658,-2.666,-2.6663,-2.6656,-2.6669,-2.6696,-2.67,-2.6668,-2.6668,-2.6667,0,-2.6259,-2.6314,-2.635,-2.6366,-2.6415,-2.6431,-2.6452,-2.6485,-2.6506,-2.6538,-2.6552,-2.6587,-2.6606,-2.6634,-2.6658,-2.6652,-2.6702,-2.6699,-2.6714,-2.6713,-2.6722,-2.6721,-2.6751,-2.6735,-2.6735,-2.6735,-2.6735,0,-2.6282,-2.631,-2.6351,-2.6372,-2.6405,-2.6432,-2.6464,-2.6486,-2.6516,-2.6543,-2.6562,-2.6586,-2.6617,-2.6646,-2.6665,-2.6701,-2.6709,-2.6721,-2.6726,-2.6719,-2.6717,-2.673,-2.6728,-2.6736,-2.6736,-2.6736,-2.6735,0,-2.6287,-2.6315,-2.6356,-2.6399,-2.641,-2.6433,-2.6469,-2.6492,-2.6514,-2.6547,-2.6557,-2.6592,-2.6627,-2.6654,-2.67,-2.6713,-2.675,-2.6755,-2.6738,-2.674,-2.6753,-2.6752,-2.6792,-2.6799,-2.6779,-2.6779,-2.6779,0,-2.6299,-2.6322,-2.6368,-2.6387,-2.6408,-2.6439,-2.6461,-2.6489,-2.6511,-2.6553,-2.657,-2.6607,-2.6637,-2.6693,-2.6722,-2.6757,-2.6763,-2.6775,-2.6768,-2.6761,-2.6762,-2.676,-2.6763,-2.6775,-2.6775,-2.6775,-2.6775,0,-2.6318,-2.6331,-2.6362,-2.6399,-2.6425,-2.6455,-2.6485,-2.65,-2.6534,-2.6558,-2.6595,-2.6619,-2.6666,-2.6702,-2.674,-2.6762,-2.6774,-2.6778,-2.6783,-2.6775,-2.6764,-2.677,-2.6739,-2.6776,-2.6776,-2.6776,-2.6776,-2.6776,-2.6327,-2.6348,-2.6384,-2.6418,-2.6444,-2.6473,-2.6496,-2.6522,-2.6553,-2.6593,-2.6609,-2.6646,-2.6681,-2.6734,-2.6756,-2.6786,-2.6787,-2.6794,-2.6796,-2.6797,-2.6796,-2.6761,-2.6793,-2.6793,-2.6793,-2.6793,-2.6793,0,-2.6346,-2.637,-2.6402,-2.6444,-2.6472,-2.6482,-2.6517,-2.6539,-2.6572,-2.6603,-2.6634,-2.6676,-2.6712,-2.6745,-2.6782,-2.6799,-2.6806,-2.6808,-2.6806,-2.6811,-2.6794,-2.6785,-2.6802,-2.6802,-2.6802,-2.6802,-2.6802,-2.6802,-2.6359,-2.6395,-2.6413,-2.6463,-2.6487,-2.6524,-2.6543,-2.657,-2.6595,-2.6642,-2.6672,-2.6693,-2.6726,-2.6766,-2.6799,-2.6808,-2.6821,-2.6821,-2.6831,-2.6814,-2.6812,-2.6811,-2.6803,-2.6824,-2.6824,-2.6846,-2.6846,-2.6847]},{"header":{"parameterUnit":"m.s-1","parameterCategory":1,"la1":30.2991,"la2":30.254,"lo1":-89.0895,"lo2":-89.0444,"dy":0.0017,"dx":0.0017,"nx":28,"ny":28,"refTime":"2023-11-09T09:00:00:Z","depth":0,"parameterNumber":3,"parameterNumberName":"V-component_of_WINDS"},"data":[0,0,0,0,0,0,0,0,0,0,0,0,0,0,0,0,0,0,0,0,0,0,0,0,0,0,0,0,0,0,0,0,0,0,0,0,0,0,0,0,0,0,0,0,0,0,0,0,0,0,0,0,0,0,0,0,0,0,2.458,2.4581,0,2.4662,2.4663,2.4664,2.4684,2.4683,2.4683,2.4682,2.4764,2.4767,2.477,0,0,0,0,0,0,0,0,0,0,0,0,0,2.4439,2.4441,2.458,2.4581,2.4582,2.4662,2.4663,2.4664,2.4684,2.4683,2.4682,2.4682,2.4763,2.4767,2.477,0,0,0,0,0,0,0,0,0,0,0,0,0,2.4508,2.4442,2.458,2.4601,2.4604,2.4662,2.4663,2.4665,2.4684,2.4683,2.4682,2.4682,2.4762,2.4766,2.477,2.4812,0,0,2.4783,2.4784,0,0,0,0,0,0,0,0,2.4504,2.4514,2.4597,2.46,2.4603,2.4662,2.4644,2.4714,2.4684,2.4654,2.4682,2.4681,2.4731,2.4737,2.4755,2.4816,2.4819,2.4783,2.4785,2.4787,2.4788,0,0,0,0,0,0,0,2.45,2.451,2.4612,2.4598,2.4602,2.4607,2.4616,2.4657,2.4696,2.4656,2.4658,2.4667,2.4732,2.4751,2.4757,2.482,2.4783,2.4786,2.4789,2.4791,2.4922,2.4924,0,0,0,0,0,0,2.4491,2.4506,2.461,2.4615,2.4551,2.461,2.462,2.4644,2.4695,2.4702,2.4668,2.4668,2.4744,2.4752,2.476,2.4814,2.4787,2.4791,2.4793,2.4921,2.4923,2.4924,0,0,0,0,0,0,2.4488,2.45,2.4606,2.4561,2.4575,2.4613,2.464,2.4646,2.4664,2.4704,2.4711,2.468,2.4744,2.4754,2.4799,2.4817,2.4793,2.4796,2.492,2.4922,2.4923,2.4921,0,0,0,0,0,0,2.4484,2.4499,2.4515,2.4561,2.4577,2.4645,2.4641,2.4648,2.4672,2.4672,2.4717,2.4724,2.4744,2.4793,2.4803,2.4822,2.48,2.4919,2.4921,2.4923,2.4919,2.4922,2.4924,0,0,0,0,0,2.4479,2.451,2.4516,2.4528,2.4598,2.4646,2.4655,2.4678,2.4673,2.469,2.4716,2.4722,2.4813,2.4798,2.4809,2.4829,2.4918,2.492,2.4923,2.4918,2.4921,2.4924,0,0,0,0,0,0,2.4463,2.4516,2.4523,2.457,2.4604,2.4649,2.4671,2.468,2.4715,2.4714,2.4741,2.4751,2.4795,2.4817,2.4799,2.4874,2.4865,2.487,2.4858,2.4861,2.4864,2.4858,2.4803,0,0,0,0,0,2.4466,2.45,2.4544,2.4582,2.4598,2.4632,2.4653,2.4669,2.4704,2.4718,2.4747,2.4781,2.4817,2.484,2.4875,2.4922,2.4933,2.4942,2.4944,2.4946,2.495,2.4979,2.4984,2.4932,2.4932,2.4932,0,0,2.447,2.4504,2.4524,2.458,2.4607,2.4643,2.4643,2.468,2.4707,2.4723,2.4769,2.4792,2.4831,2.4878,2.49,2.4897,2.4967,2.4949,2.495,2.4954,2.4982,2.4987,2.4991,2.4933,2.4933,2.4933,0,0,2.4498,2.4525,2.4561,2.4589,2.4632,2.4654,2.4663,2.4707,2.4724,2.477,2.4783,2.4816,2.4877,2.4905,2.4928,2.4968,2.4976,2.4979,2.4992,2.5019,2.5023,2.5027,2.5044,2.5049,2.4983,2.4983,2.4983,0,2.4498,2.4553,2.4577,2.4615,2.464,2.4658,2.4694,2.472,2.4771,2.4788,2.4784,2.4864,2.4891,2.4946,2.4957,2.4973,2.4985,2.4974,2.5021,2.5025,2.5029,2.5045,2.5051,2.4983,2.4983,2.4983,2.4983,0,2.4552,2.459,2.4613,2.4664,2.4692,2.4728,2.4759,2.4784,2.4797,2.482,2.4869,2.4903,2.4946,2.496,2.4973,2.5018,2.5015,2.5016,2.5008,2.5034,2.5049,2.5055,2.4983,2.4983,2.4983,2.4983,0,0,2.4571,2.4637,2.4645,2.467,2.4719,2.4749,2.4787,2.4831,2.4853,2.4888,2.4921,2.4974,2.4976,2.5001,2.5017,2.5041,2.5074,2.5039,2.5041,2.5046,2.5128,2.5128,2.5135,2.5079,2.5081,2.5082,2.5125,0,2.4605,2.4675,2.4699,2.4757,2.4793,2.4811,2.4845,2.4879,2.4901,2.4936,2.496,2.4998,2.4997,2.5013,2.5037,2.5065,2.5091,2.5062,2.5111,2.5113,2.5102,2.5143,2.5143,2.5182,2.5131,2.5132,2.5133,0,2.4654,2.4693,2.4754,2.4801,2.4817,2.4847,2.4891,2.4923,2.4962,2.4977,2.5007,2.5022,2.5063,2.5053,2.5111,2.509,2.5112,2.5129,2.5131,2.5137,2.5125,2.5152,2.5195,2.5202,2.5142,2.5142,2.5141,0,2.4665,2.4731,2.4777,2.4797,2.4852,2.4873,2.4897,2.4936,2.4962,2.5,2.5017,2.5058,2.5082,2.5114,2.514,2.513,2.5196,2.5187,2.5211,2.521,2.5224,2.5223,2.5274,2.5236,2.5236,2.5236,2.5236,0,2.4701,2.4738,2.4783,2.4811,2.4854,2.4882,2.4923,2.4948,2.4983,2.5017,2.5034,2.5066,2.5098,2.5134,2.5154,2.52,2.521,2.5224,2.5229,2.5223,2.5222,2.5239,2.5237,2.5237,2.5237,2.5237,2.5237,0,2.472,2.475,2.4802,2.4851,2.4865,2.4894,2.4936,2.4965,2.4989,2.5032,2.5044,2.5082,2.5125,2.5154,2.5209,2.5223,2.5274,2.5277,2.5261,2.5264,2.5286,2.5284,2.535,2.5361,2.5314,2.5315,2.5315,0,2.4742,2.4771,2.4824,2.4849,2.4873,2.4912,2.4939,2.4969,2.4996,2.5045,2.5068,2.5113,2.515,2.5218,2.5251,2.5294,2.53,2.532,2.5306,2.53,2.5302,2.5301,2.5305,2.5322,2.5322,2.5323,2.5323,0,2.4778,2.4793,2.4831,2.4876,2.4908,2.4945,2.4981,2.5,2.5036,2.5066,2.5111,2.514,2.5198,2.5243,2.5289,2.5313,2.5325,2.5327,2.5335,2.533,2.532,2.5328,2.5268,2.5326,2.5325,2.5325,2.5325,2.5325,2.48,2.4828,2.4871,2.4914,2.4945,2.4979,2.5009,2.5038,2.5077,2.5127,2.5141,2.5189,2.523,2.5293,2.5319,2.5357,2.5355,2.5366,2.5369,2.5372,2.5373,2.5313,2.5365,2.5365,2.5365,2.5365,2.5365,0,2.4839,2.4868,2.4908,2.4959,2.4994,2.5002,2.5043,2.5072,2.5114,2.5151,2.5188,2.5241,2.5285,2.5322,2.5368,2.5391,2.5398,2.5402,2.5402,2.5408,2.5371,2.536,2.5397,2.5397,2.5397,2.5397,2.5396,2.5396,2.4864,2.4913,2.4932,2.4997,2.5025,2.5073,2.5096,2.5129,2.5159,2.5218,2.5255,2.5279,2.5317,2.5366,2.5407,2.5417,2.5433,2.5437,2.5448,2.5413,2.541,2.5406,2.5397,2.544,2.544,2.5482,2.5482,2.5483]}]]